����������;��������(kWh)
2016-07-11 00:00;85,2
2016-07-11 00:15;91,75
2016-07-11 00:30;95,25
2016-07-11 00:45;93,75
2016-07-11 01:00;89,1
2016-07-11 01:15;85,05
2016-07-11 01:30;82,45
2016-07-11 01:45;82,95
2016-07-11 02:00;87,6
2016-07-11 02:15;83,35
2016-07-11 02:30;84,3
2016-07-11 02:45;87,55
2016-07-11 03:00;83,75
2016-07-11 03:15;83,7
2016-07-11 03:30;85
2016-07-11 03:45;89,2
2016-07-11 04:00;91,35
2016-07-11 04:15;86,65
2016-07-11 04:30;85,9
2016-07-11 04:45;87,9
2016-07-11 05:00;88,05
2016-07-11 05:15;86,35
2016-07-11 05:30;84,8
2016-07-11 05:45;87,7
2016-07-11 06:00;87,3
2016-07-11 06:15;80,9
2016-07-11 06:30;81,8
2016-07-11 06:45;89,25
2016-07-11 07:00;91,35
2016-07-11 07:15;90,1
2016-07-11 07:30;88,65
2016-07-11 07:45;152,65
2016-07-11 08:00;160,25
2016-07-11 08:15;153,15
2016-07-11 08:30;112,5
2016-07-11 08:45;128,95
2016-07-11 09:00;131,5
2016-07-11 09:15;141,25
2016-07-11 09:30;164,1
2016-07-11 09:45;123,95
2016-07-11 10:00;184
2016-07-11 10:15;200,15
2016-07-11 10:30;205,95
2016-07-11 10:45;209,75
2016-07-11 11:00;226,2
2016-07-11 11:15;227,4
2016-07-11 11:30;241,25
2016-07-11 11:45;239,6
2016-07-11 12:00;247,55
2016-07-11 12:15;248,8
2016-07-11 12:30;249,35
2016-07-11 12:45;234,55
2016-07-11 13:00;233,15
2016-07-11 13:15;229,95
2016-07-11 13:30;235
2016-07-11 13:45;226,05
2016-07-11 14:00;229
2016-07-11 14:15;235
2016-07-11 14:30;219,65
2016-07-11 14:45;203,85
2016-07-11 15:00;220,7
2016-07-11 15:15;203,75
2016-07-11 15:30;188,7
2016-07-11 15:45;196,65
2016-07-11 16:00;171,7
2016-07-11 16:15;169,75
2016-07-11 16:30;171,1
2016-07-11 16:45;170,3
2016-07-11 17:00;160,65
2016-07-11 17:15;156,85
2016-07-11 17:30;161,05
2016-07-11 17:45;155,2
2016-07-11 18:00;142,05
2016-07-11 18:15;138,8
2016-07-11 18:30;128,1
2016-07-11 18:45;121,3
2016-07-11 19:00;118,65
2016-07-11 19:15;105,1
2016-07-11 19:30;110,3
2016-07-11 19:45;108,2
2016-07-11 20:00;107,35
2016-07-11 20:15;102,5
2016-07-11 20:30;99,65
2016-07-11 20:45;106,2
2016-07-11 21:00;110,8
2016-07-11 21:15;107,5
2016-07-11 21:30;105,4
2016-07-11 21:45;100,5
2016-07-11 22:00;97,85
2016-07-11 22:15;96,7
2016-07-11 22:30;91,1
2016-07-11 22:45;91,45
2016-07-11 23:00;94,9
2016-07-11 23:15;89,85
2016-07-11 23:30;91,1
2016-07-11 23:45;95,65
2016-07-12 00:00;79,15
2016-07-12 00:15;78,25
2016-07-12 00:30;79,2
2016-07-12 00:45;78,25
2016-07-12 01:00;78
2016-07-12 01:15;75,4
2016-07-12 01:30;79,75
2016-07-12 01:45;83,9
2016-07-12 02:00;86,8
2016-07-12 02:15;76,3
2016-07-12 02:30;77,95
2016-07-12 02:45;76,55
2016-07-12 03:00;77,05
2016-07-12 03:15;76,05
2016-07-12 03:30;75,25
2016-07-12 03:45;76,15
2016-07-12 04:00;74,35
2016-07-12 04:15;77,3
2016-07-12 04:30;75,25
2016-07-12 04:45;75
2016-07-12 05:00;72,8
2016-07-12 05:15;75,15
2016-07-12 05:30;73,55
2016-07-12 05:45;75,55
2016-07-12 06:00;76
2016-07-12 06:15;81,2
2016-07-12 06:30;72,1
2016-07-12 06:45;68,8
2016-07-12 07:00;74,75
2016-07-12 07:15;82,95
2016-07-12 07:30;83,35
2016-07-12 07:45;145,2
2016-07-12 08:00;151,65
2016-07-12 08:15;112,15
2016-07-12 08:30;127,15
2016-07-12 08:45;131,75
2016-07-12 09:00;145,25
2016-07-12 09:15;173,4
2016-07-12 09:30;173,65
2016-07-12 09:45;187,35
2016-07-12 10:00;201,7
2016-07-12 10:15;192,1
2016-07-12 10:30;192,95
2016-07-12 10:45;199,05
2016-07-12 11:00;199,5
2016-07-12 11:15;236,2
2016-07-12 11:30;217,1
2016-07-12 11:45;222,8
2016-07-12 12:00;231,65
2016-07-12 12:15;230,35
2016-07-12 12:30;222,35
2016-07-12 12:45;233,7
2016-07-12 13:00;226,85
2016-07-12 13:15;218,4
2016-07-12 13:30;221,55
2016-07-12 13:45;225,05
2016-07-12 14:00;217,15
2016-07-12 14:15;222
2016-07-12 14:30;218,15
2016-07-12 14:45;210,75
2016-07-12 15:00;212,05
2016-07-12 15:15;205,05
2016-07-12 15:30;207,3
2016-07-12 15:45;204,05
2016-07-12 16:00;192,65
2016-07-12 16:15;160,75
2016-07-12 16:30;165,35
2016-07-12 16:45;159,1
2016-07-12 17:00;157,15
2016-07-12 17:15;157,8
2016-07-12 17:30;157
2016-07-12 17:45;141,15
2016-07-12 18:00;151,1
2016-07-12 18:15;156,6
2016-07-12 18:30;146,05
2016-07-12 18:45;141,65
2016-07-12 19:00;144,25
2016-07-12 19:15;134
2016-07-12 19:30;124,4
2016-07-12 19:45;116,05
2016-07-12 20:00;108,1
2016-07-12 20:15;103,6
2016-07-12 20:30;101,4
2016-07-12 20:45;102,65
2016-07-12 21:00;107,15
2016-07-12 21:15;104
2016-07-12 21:30;106,7
2016-07-12 21:45;101,65
2016-07-12 22:00;102,9
2016-07-12 22:15;98,6
2016-07-12 22:30;96,95
2016-07-12 22:45;98,95
2016-07-12 23:00;106,3
2016-07-12 23:15;98,6
2016-07-12 23:30;94,6
2016-07-12 23:45;94,6
2016-07-13 00:00;81,55
2016-07-13 00:15;80,45
2016-07-13 00:30;80,1
2016-07-13 00:45;80,3
2016-07-13 01:00;81,6
2016-07-13 01:15;81,4
2016-07-13 01:30;78,15
2016-07-13 01:45;77,95
2016-07-13 02:00;78,1
2016-07-13 02:15;79,85
2016-07-13 02:30;81,95
2016-07-13 02:45;85,25
2016-07-13 03:00;84,3
2016-07-13 03:15;82,65
2016-07-13 03:30;78,9
2016-07-13 03:45;81,1
2016-07-13 04:00;79,25
2016-07-13 04:15;79,4
2016-07-13 04:30;77,3
2016-07-13 04:45;78,75
2016-07-13 05:00;76,55
2016-07-13 05:15;77,95
2016-07-13 05:30;74,6
2016-07-13 05:45;77,65
2016-07-13 06:00;82,6
2016-07-13 06:15;90,5
2016-07-13 06:30;85
2016-07-13 06:45;83,55
2016-07-13 07:00;88,5
2016-07-13 07:15;92,3
2016-07-13 07:30;96,4
2016-07-13 07:45;153,6
2016-07-13 08:00;153,55
2016-07-13 08:15;117,35
2016-07-13 08:30;127,65
2016-07-13 08:45;128,25
2016-07-13 09:00;136,3
2016-07-13 09:15;149,95
2016-07-13 09:30;141,2
2016-07-13 09:45;162,6
2016-07-13 10:00;171,45
2016-07-13 10:15;177,8
2016-07-13 10:30;199,3
2016-07-13 10:45;209,35
2016-07-13 11:00;223,25
2016-07-13 11:15;229,6
2016-07-13 11:30;235,5
2016-07-13 11:45;233,2
2016-07-13 12:00;237,95
2016-07-13 12:15;239,1
2016-07-13 12:30;241,55
2016-07-13 12:45;239,9
2016-07-13 13:00;232,45
2016-07-13 13:15;239,1
2016-07-13 13:30;239,85
2016-07-13 13:45;224,9
2016-07-13 14:00;239,45
2016-07-13 14:15;233,4
2016-07-13 14:30;212,15
2016-07-13 14:45;227,7
2016-07-13 15:00;227,95
2016-07-13 15:15;208,2
2016-07-13 15:30;215,2
2016-07-13 15:45;208,2
2016-07-13 16:00;190,3
2016-07-13 16:15;195,1
2016-07-13 16:30;192,4
2016-07-13 16:45;179,35
2016-07-13 17:00;187,3
2016-07-13 17:15;169
2016-07-13 17:30;164,8
2016-07-13 17:45;156,35
2016-07-13 18:00;152
2016-07-13 18:15;162,95
2016-07-13 18:30;149,8
2016-07-13 18:45;144,1
2016-07-13 19:00;140,1
2016-07-13 19:15;130,25
2016-07-13 19:30;129,65
2016-07-13 19:45;130,85
2016-07-13 20:00;120,05
2016-07-13 20:15;112,5
2016-07-13 20:30;102,55
2016-07-13 20:45;96,2
2016-07-13 21:00;102,75
2016-07-13 21:15;99,7
2016-07-13 21:30;100,75
2016-07-13 21:45;96,05
2016-07-13 22:00;94,8
2016-07-13 22:15;95
2016-07-13 22:30;91,85
2016-07-13 22:45;94,35
2016-07-13 23:00;98,05
2016-07-13 23:15;97,6
2016-07-13 23:30;92,75
2016-07-13 23:45;96,75
2016-07-14 00:00;81,25
2016-07-14 00:15;79,95
2016-07-14 00:30;77,85
2016-07-14 00:45;78,65
2016-07-14 01:00;77,6
2016-07-14 01:15;78,05
2016-07-14 01:30;76,3
2016-07-14 01:45;76,8
2016-07-14 02:00;76,8
2016-07-14 02:15;78,7
2016-07-14 02:30;76,25
2016-07-14 02:45;79,05
2016-07-14 03:00;76,1
2016-07-14 03:15;78,55
2016-07-14 03:30;78
2016-07-14 03:45;76,75
2016-07-14 04:00;78,05
2016-07-14 04:15;80,25
2016-07-14 04:30;82,2
2016-07-14 04:45;82,05
2016-07-14 05:00;79,25
2016-07-14 05:15;76,45
2016-07-14 05:30;77,3
2016-07-14 05:45;74,25
2016-07-14 06:00;84,6
2016-07-14 06:15;78,3
2016-07-14 06:30;90,45
2016-07-14 06:45;85,05
2016-07-14 07:00;88,85
2016-07-14 07:15;97,4
2016-07-14 07:30;99,25
2016-07-14 07:45;154,4
2016-07-14 08:00;157
2016-07-14 08:15;114,7
2016-07-14 08:30;129,7
2016-07-14 08:45;127,7
2016-07-14 09:00;148,45
2016-07-14 09:15;147,7
2016-07-14 09:30;165,2
2016-07-14 09:45;178,15
2016-07-14 10:00;173,4
2016-07-14 10:15;190,9
2016-07-14 10:30;183,95
2016-07-14 10:45;191,8
2016-07-14 11:00;194,05
2016-07-14 11:15;203,15
2016-07-14 11:30;201,75
2016-07-14 11:45;211,6
2016-07-14 12:00;209,9
2016-07-14 12:15;240,2
2016-07-14 12:30;243,3
2016-07-14 12:45;218
2016-07-14 13:00;234,25
2016-07-14 13:15;216
2016-07-14 13:30;237,75
2016-07-14 13:45;231,95
2016-07-14 14:00;221,8
2016-07-14 14:15;226,1
2016-07-14 14:30;211,95
2016-07-14 14:45;204,9
2016-07-14 15:00;201,55
2016-07-14 15:15;185,95
2016-07-14 15:30;189,3
2016-07-14 15:45;183,85
2016-07-14 16:00;171,55
2016-07-14 16:15;171
2016-07-14 16:30;169,7
2016-07-14 16:45;167
2016-07-14 17:00;169,7
2016-07-14 17:15;141,75
2016-07-14 17:30;138,8
2016-07-14 17:45;143,55
2016-07-14 18:00;136,9
2016-07-14 18:15;145,1
2016-07-14 18:30;136,6
2016-07-14 18:45;131,4
2016-07-14 19:00;134,4
2016-07-14 19:15;121,4
2016-07-14 19:30;120,15
2016-07-14 19:45;117,65
2016-07-14 20:00;119,25
2016-07-14 20:15;118,4
2016-07-14 20:30;112,95
2016-07-14 20:45;115,3
2016-07-14 21:00;116
2016-07-14 21:15;114,25
2016-07-14 21:30;115,25
2016-07-14 21:45;111,1
2016-07-14 22:00;109,75
2016-07-14 22:15;107,95
2016-07-14 22:30;106,7
2016-07-14 22:45;109,35
2016-07-14 23:00;114,9
2016-07-14 23:15;110,5
2016-07-14 23:30;107,95
2016-07-14 23:45;113,15
2016-07-15 00:00;96,95
2016-07-15 00:15;93,5
2016-07-15 00:30;88,8
2016-07-15 00:45;88,65
2016-07-15 01:00;88,9
2016-07-15 01:15;88,3
2016-07-15 01:30;89,75
2016-07-15 01:45;89,1
2016-07-15 02:00;89,6
2016-07-15 02:15;88,9
2016-07-15 02:30;88,95
2016-07-15 02:45;89,4
2016-07-15 03:00;88,3
2016-07-15 03:15;84,9
2016-07-15 03:30;83,4
2016-07-15 03:45;85,25
2016-07-15 04:00;81,9
2016-07-15 04:15;85,1
2016-07-15 04:30;83,15
2016-07-15 04:45;80,05
2016-07-15 05:00;80,95
2016-07-15 05:15;78,55
2016-07-15 05:30;84,1
2016-07-15 05:45;84,4
2016-07-15 06:00;83,9
2016-07-15 06:15;93,1
2016-07-15 06:30;79,55
2016-07-15 06:45;83,35
2016-07-15 07:00;86,35
2016-07-15 07:15;100,55
2016-07-15 07:30;101,1
2016-07-15 07:45;161,9
2016-07-15 08:00;170,45
2016-07-15 08:15;140,15
2016-07-15 08:30;129,35
2016-07-15 08:45;136,55
2016-07-15 09:00;150,85
2016-07-15 09:15;174,35
2016-07-15 09:30;172,1
2016-07-15 09:45;166,8
2016-07-15 10:00;191,9
2016-07-15 10:15;190,2
2016-07-15 10:30;188
2016-07-15 10:45;203,1
2016-07-15 11:00;213
2016-07-15 11:15;219,8
2016-07-15 11:30;105,45
2016-07-15 11:45;230,8
2016-07-15 12:00;221,55
2016-07-15 12:15;220,55
2016-07-15 12:30;223,7
2016-07-15 12:45;220,45
2016-07-15 13:00;229,2
2016-07-15 13:15;222
2016-07-15 13:30;229,6
2016-07-15 13:45;227,5
2016-07-15 14:00;221,9
2016-07-15 14:15;225,3
2016-07-15 14:30;232,95
2016-07-15 14:45;228,15
2016-07-15 15:00;219,75
2016-07-15 15:15;204,25
2016-07-15 15:30;200,05
2016-07-15 15:45;187,35
2016-07-15 16:00;186,55
2016-07-15 16:15;178,1
2016-07-15 16:30;163,65
2016-07-15 16:45;165,9
2016-07-15 17:00;165,05
2016-07-15 17:15;143,95
2016-07-15 17:30;149,7
2016-07-15 17:45;146,45
2016-07-15 18:00;138,7
2016-07-15 18:15;142,55
2016-07-15 18:30;130,45
2016-07-15 18:45;128,45
2016-07-15 19:00;127,7
2016-07-15 19:15;114,95
2016-07-15 19:30;112,15
2016-07-15 19:45;111,7
2016-07-15 20:00;109,95
2016-07-15 20:15;104,75
2016-07-15 20:30;101,5
2016-07-15 20:45;104,15
2016-07-15 21:00;105,25
2016-07-15 21:15;104,3
2016-07-15 21:30;102,8
2016-07-15 21:45;103,1
2016-07-15 22:00;98,5
2016-07-15 22:15;99,55
2016-07-15 22:30;97,45
2016-07-15 22:45;95
2016-07-15 23:00;105,5
2016-07-15 23:15;100,65
2016-07-15 23:30;101,6
2016-07-15 23:45;106,95
2016-07-16 00:00;91,85
2016-07-16 00:15;88,45
2016-07-16 00:30;91,2
2016-07-16 00:45;88,25
2016-07-16 01:00;80,15
2016-07-16 01:15;82,35
2016-07-16 01:30;81,25
2016-07-16 01:45;79,05
2016-07-16 02:00;82,55
2016-07-16 02:15;82,65
2016-07-16 02:30;81,45
2016-07-16 02:45;82,05
2016-07-16 03:00;81,6
2016-07-16 03:15;81,8
2016-07-16 03:30;80,45
2016-07-16 03:45;81,55
2016-07-16 04:00;82,2
2016-07-16 04:15;80,6
2016-07-16 04:30;83,05
2016-07-16 04:45;80,45
2016-07-16 05:00;78,25
2016-07-16 05:15;80,7
2016-07-16 05:30;81,4
2016-07-16 05:45;77,25
2016-07-16 06:00;78,5
2016-07-16 06:15;74,1
2016-07-16 06:30;74,25
2016-07-16 06:45;75,7
2016-07-16 07:00;73,6
2016-07-16 07:15;80,55
2016-07-16 07:30;81,75
2016-07-16 07:45;80
2016-07-16 08:00;81,7
2016-07-16 08:15;81,9
2016-07-16 08:30;81,8
2016-07-16 08:45;86,05
2016-07-16 09:00;83,3
2016-07-16 09:15;83
2016-07-16 09:30;82,45
2016-07-16 09:45;80,35
2016-07-16 10:00;88,5
2016-07-16 10:15;89,95
2016-07-16 10:30;92,05
2016-07-16 10:45;85,05
2016-07-16 11:00;86,4
2016-07-16 11:15;90,55
2016-07-16 11:30;90,75
2016-07-16 11:45;87,45
2016-07-16 12:00;86,55
2016-07-16 12:15;86,6
2016-07-16 12:30;85,7
2016-07-16 12:45;87
2016-07-16 13:00;86,85
2016-07-16 13:15;84,1
2016-07-16 13:30;88,6
2016-07-16 13:45;89,3
2016-07-16 14:00;88,35
2016-07-16 14:15;85,8
2016-07-16 14:30;86,75
2016-07-16 14:45;87,25
2016-07-16 15:00;85,95
2016-07-16 15:15;89,85
2016-07-16 15:30;87,15
2016-07-16 15:45;84,95
2016-07-16 16:00;87,75
2016-07-16 16:15;89,75
2016-07-16 16:30;86,95
2016-07-16 16:45;90,55
2016-07-16 17:00;92
2016-07-16 17:15;88,4
2016-07-16 17:30;87,9
2016-07-16 17:45;90,6
2016-07-16 18:00;88,1
2016-07-16 18:15;95,7
2016-07-16 18:30;92,15
2016-07-16 18:45;93,1
2016-07-16 19:00;98,55
2016-07-16 19:15;90,25
2016-07-16 19:30;91,55
2016-07-16 19:45;90,6
2016-07-16 20:00;88,1
2016-07-16 20:15;89,1
2016-07-16 20:30;91
2016-07-16 20:45;95,2
2016-07-16 21:00;96
2016-07-16 21:15;94,2
2016-07-16 21:30;90
2016-07-16 21:45;89,05
2016-07-16 22:00;91,15
2016-07-16 22:15;88,95
2016-07-16 22:30;91,95
2016-07-16 22:45;94,2
2016-07-16 23:00;97,05
2016-07-16 23:15;94,05
2016-07-16 23:30;92,65
2016-07-16 23:45;96,4
2016-07-17 00:00;82,6
2016-07-17 00:15;82,6
2016-07-17 00:30;82,55
2016-07-17 00:45;79,95
2016-07-17 01:00;81,35
2016-07-17 01:15;79,8
2016-07-17 01:30;78,85
2016-07-17 01:45;80,1
2016-07-17 02:00;76,9
2016-07-17 02:15;80,55
2016-07-17 02:30;78,9
2016-07-17 02:45;80,85
2016-07-17 03:00;81,25
2016-07-17 03:15;78,6
2016-07-17 03:30;80,8
2016-07-17 03:45;79,1
2016-07-17 04:00;78,45
2016-07-17 04:15;79,1
2016-07-17 04:30;79,6
2016-07-17 04:45;78,4
2016-07-17 05:00;75,95
2016-07-17 05:15;79,1
2016-07-17 05:30;76
2016-07-17 05:45;78,9
2016-07-17 06:00;74,45
2016-07-17 06:15;74,2
2016-07-17 06:30;69,7
2016-07-17 06:45;70,75
2016-07-17 07:00;68,8
2016-07-17 07:15;72,1
2016-07-17 07:30;69,6
2016-07-17 07:45;70,15
2016-07-17 08:00;65,35
2016-07-17 08:15;69,7
2016-07-17 08:30;69,75
2016-07-17 08:45;67,15
2016-07-17 09:00;68,1
2016-07-17 09:15;67,05
2016-07-17 09:30;68,85
2016-07-17 09:45;68,05
2016-07-17 10:00;68,4
2016-07-17 10:15;70,2
2016-07-17 10:30;68,4
2016-07-17 10:45;78,2
2016-07-17 11:00;80,4
2016-07-17 11:15;79,95
2016-07-17 11:30;79,8
2016-07-17 11:45;74,6
2016-07-17 12:00;74,25
2016-07-17 12:15;75,65
2016-07-17 12:30;77,35
2016-07-17 12:45;74,75
2016-07-17 13:00;75
2016-07-17 13:15;74,5
2016-07-17 13:30;73,6
2016-07-17 13:45;74,15
2016-07-17 14:00;76,25
2016-07-17 14:15;73,45
2016-07-17 14:30;73,8
2016-07-17 14:45;75,05
2016-07-17 15:00;73,6
2016-07-17 15:15;77,85
2016-07-17 15:30;77,45
2016-07-17 15:45;78,5
2016-07-17 16:00;81,5
2016-07-17 16:15;79,95
2016-07-17 16:30;79,65
2016-07-17 16:45;87,8
2016-07-17 17:00;90,35
2016-07-17 17:15;85,35
2016-07-17 17:30;88,7
2016-07-17 17:45;88,95
2016-07-17 18:00;86,85
2016-07-17 18:15;96,8
2016-07-17 18:30;91,75
2016-07-17 18:45;93,2
2016-07-17 19:00;98,5
2016-07-17 19:15;91,9
2016-07-17 19:30;89,75
2016-07-17 19:45;88,9
2016-07-17 20:00;89,4
2016-07-17 20:15;86,2
2016-07-17 20:30;87,1
2016-07-17 20:45;102,25
2016-07-17 21:00;105,75
2016-07-17 21:15;102,35
2016-07-17 21:30;97,35
2016-07-17 21:45;100,35
2016-07-17 22:00;96,5
2016-07-17 22:15;97,35
2016-07-17 22:30;93,85
2016-07-17 22:45;95,55
2016-07-17 23:00;101,6
2016-07-17 23:15;94,55
2016-07-17 23:30;95,75
2016-07-17 23:45;98,3

